Pagrindinis puslapis
METAR-TAF:

METAR-TAF

Oro uostai :

Altus, Oklahoma, Jungtinės Amerikos Valstijos

platuma: 34-41-55N, ilguma: 099-20-17W, Aukštis: 437 m

Dabartinis oras

Ataskaita buvo paskelbta 29 minutes, ne 11:15 UTC
Vėjas 4 kt iš Rytų
Temperatūra 7°C
Drėgmė 66%
Slėgis 1016 hPa
Matomumas: 16.1 km
Giedras dangus

METAR: KAXS 301115Z AUTO 09004KT 10SM CLR 07/01 A3000 RMK AO2 T00650013

Laikas: 05:44 (11:44 UTC)


TAF: trūkstamas

Orai ataskaitas ir orų prognozės (METAR, TAF).

turimą stotys yra geltonos ir raudonos taškus žemėlapyje.

Perkelti pele per norėdami pamatyti stoties vardą.

Tada spustelėkite, norėdami matyti oro stebėjimo ir prognozės.

Norėdami pakeisti žemėlapį: spustelėkite ant žalios mygtukų su juodo kryžiaus žemyn,; žalią mygtuką su brūkšneliu, jei norite nutolinti; arba žalių rodyklių gretimoms žemėlapius.


METAR-TAF: